Terug naar catalogus

KITSAT 3

ActiefWetenschapSSO
NORAD 25756·PAYLOAD·🇰🇷 South Korea

Gelanceerd May 26, 1999 vanaf Satish Dhawan Space Centre

Loading…

Volgende Passages (komende 24 uur)

TLE

VersSource: Space-Track

Epoch: Sep 14, 2026, 13:26 UTC

1 25756U 99029A   26257.56037208  .00000124  00000-0  39446-4 0  9994
2 25756  98.6108 295.9964 0013010 354.2540   5.8505 14.55837861448031

Volg KITSAT 3 in realtime met AllMySat

Download on the App Store